AAL1552 KLAX-KORD

Flight info

Callsign AAL1552
Flight time 3h 2m
Altitude 37000
Route DOTSS2 CLEEE PKE J96 CIM/N0471F390 SLN IRK BENKY6
Aircraft B77W/H-SDE1E2E3FGHIJ2J3J4J5M1RWXY/LB1D1

Departure

Time 2026-05-05 07:51
Airport Los Angeles International Airport (KLAX)

Arrival

Time 2026-05-05 10:53
Airport Chicago O'Hare International Airport (KORD)
Time Latitude Longitude Altitude Speed Heading
2026-05-05 06:52 33.94163 -118.40764 130 ft 0 kts 83°
2026-05-05 07:29 33.94162 -118.40772 130 ft 2 kts 83°
2026-05-05 07:30 33.94160 -118.40791 130 ft 2 kts 87°
2026-05-05 07:30 33.94167 -118.40824 132 ft 2 kts 122°
2026-05-05 07:30 33.94176 -118.40838 132 ft 2 kts 138°
2026-05-05 07:31 33.94189 -118.40848 132 ft 2 kts 154°
2026-05-05 07:31 33.94203 -118.40855 132 ft 2 kts 169°
2026-05-05 07:31 33.94201 -118.40855 132 ft 3 kts 170°
2026-05-05 07:31 33.94157 -118.40847 132 ft 7 kts 173°
2026-05-05 07:32 33.94103 -118.40838 132 ft 7 kts 173°
2026-05-05 07:32 33.94049 -118.40829 133 ft 7 kts 173°
2026-05-05 07:32 33.93996 -118.40822 133 ft 7 kts 173°
2026-05-05 07:32 33.93958 -118.40816 133 ft 1 kts 173°
2026-05-05 07:33 33.93952 -118.40816 133 ft 0 kts 173°
2026-05-05 07:43 33.93951 -118.40816 133 ft 0 kts 173°
2026-05-05 07:43 33.93940 -118.40813 133 ft 2 kts 173°
2026-05-05 07:43 33.93913 -118.40809 133 ft 4 kts 166°
2026-05-05 07:44 33.93876 -118.40786 133 ft 7 kts 142°
2026-05-05 07:44 33.93833 -118.40739 133 ft 9 kts 133°
2026-05-05 07:44 33.93812 -118.40660 132 ft 11 kts 89°
2026-05-05 07:44 33.93823 -118.40553 132 ft 14 kts 82°
2026-05-05 07:45 33.93837 -118.40427 130 ft 16 kts 82°
2026-05-05 07:45 33.93850 -118.40285 129 ft 18 kts 83°
2026-05-05 07:45 33.93866 -118.40124 126 ft 20 kts 83°
2026-05-05 07:45 33.93884 -118.39952 124 ft 20 kts 83°
2026-05-05 07:46 33.93902 -118.39779 122 ft 20 kts 83°
2026-05-05 07:46 33.93920 -118.39606 119 ft 20 kts 83°
2026-05-05 07:46 33.93937 -118.39436 117 ft 20 kts 83°
2026-05-05 07:46 33.93954 -118.39268 115 ft 20 kts 83°
2026-05-05 07:47 33.93971 -118.39102 114 ft 19 kts 83°
2026-05-05 07:47 33.93987 -118.38943 113 ft 18 kts 83°
2026-05-05 07:47 33.94003 -118.38787 112 ft 18 kts 83°
2026-05-05 07:47 33.94018 -118.38641 111 ft 17 kts 83°
2026-05-05 07:48 33.94033 -118.38496 111 ft 17 kts 83°
2026-05-05 07:48 33.94048 -118.38348 110 ft 18 kts 83°
2026-05-05 07:48 33.94063 -118.38199 110 ft 15 kts 83°
2026-05-05 07:48 33.94073 -118.38109 109 ft 8 kts 83°
2026-05-05 07:49 33.94077 -118.38055 109 ft 6 kts 94°
2026-05-05 07:49 33.94056 -118.38013 109 ft 6 kts 147°
2026-05-05 07:49 33.94019 -118.38002 109 ft 3 kts 180°
2026-05-05 07:49 33.93997 -118.38013 109 ft 3 kts 223°
2026-05-05 07:50 33.93984 -118.38045 109 ft 5 kts 253°
2026-05-05 07:50 33.93976 -118.38090 109 ft 4 kts 262°
2026-05-05 07:50 33.93971 -118.38138 109 ft 8 kts 263°
2026-05-05 07:50 33.93945 -118.38408 110 ft 68 kts 263°
2026-05-05 07:51 33.93854 -118.39301 116 ft 143 kts 263°
2026-05-05 07:51 33.93715 -118.40708 445 ft 180 kts 264°
2026-05-05 07:51 33.93569 -118.42160 1356 ft 183 kts 263°
2026-05-05 07:51 33.93341 -118.43742 1954 ft 200 kts 258°
2026-05-05 07:52 33.93031 -118.45346 2846 ft 198 kts 256°
2026-05-05 07:52 33.92537 -118.46970 3172 ft 220 kts 240°
2026-05-05 07:52 33.91556 -118.48498 3680 ft 241 kts 230°
2026-05-05 07:52 33.90401 -118.50063 4503 ft 248 kts 231°
2026-05-05 07:53 33.89259 -118.51648 5122 ft 264 kts 231°
2026-05-05 07:53 33.88070 -118.53341 6014 ft 267 kts 231°
2026-05-05 07:53 33.86779 -118.54903 7015 ft 267 kts 216°
2026-05-05 07:53 33.85087 -118.55774 7846 ft 273 kts 193°
2026-05-05 07:54 33.83148 -118.55742 8630 ft 281 kts 172°
2026-05-05 07:54 33.81220 -118.55230 9554 ft 283 kts 169°
2026-05-05 07:54 33.79295 -118.54683 10232 ft 290 kts 169°
2026-05-05 07:54 33.77255 -118.54121 10728 ft 308 kts 169°
2026-05-05 07:55 33.75108 -118.53431 11238 ft 326 kts 162°
2026-05-05 07:55 33.73004 -118.52293 11747 ft 344 kts 152°
2026-05-05 07:55 33.70989 -118.50623 12275 ft 361 kts 142°
2026-05-05 07:55 33.69192 -118.48422 12819 ft 378 kts 130°
2026-05-05 07:56 33.67742 -118.45717 13491 ft 392 kts 118°
2026-05-05 07:56 33.66739 -118.42667 14359 ft 399 kts 110°
2026-05-05 07:56 33.65858 -118.39510 15361 ft 402 kts 110°
2026-05-05 07:56 33.64994 -118.36337 16259 ft 408 kts 107°
2026-05-05 07:57 33.64495 -118.32948 17117 ft 416 kts 96°
2026-05-05 07:57 33.64421 -118.29485 17941 ft 423 kts 91°
2026-05-05 07:57 33.64431 -118.25929 18799 ft 428 kts 91°
2026-05-05 07:57 33.64442 -118.22356 19758 ft 430 kts 92°
2026-05-05 07:58 33.64450 -118.18787 20594 ft 435 kts 92°
2026-05-05 07:58 33.64454 -118.15131 21299 ft 443 kts 92°
2026-05-05 07:58 33.64456 -118.11417 22023 ft 449 kts 92°
2026-05-05 07:58 33.64456 -118.07624 22737 ft 455 kts 92°
2026-05-05 07:59 33.64453 -118.03798 23432 ft 461 kts 92°
2026-05-05 07:59 33.64450 -117.99961 24161 ft 464 kts 93°
2026-05-05 07:59 33.64445 -117.96027 24697 ft 470 kts 94°
2026-05-05 07:59 33.64437 -117.92096 25106 ft 480 kts 94°
2026-05-05 08:00 33.64428 -117.88004 25560 ft 487 kts 94°
2026-05-05 08:00 33.64418 -117.83931 26049 ft 493 kts 94°
2026-05-05 08:00 33.64537 -117.79753 26543 ft 503 kts 88°
2026-05-05 08:00 33.65136 -117.75590 27029 ft 514 kts 82°
2026-05-05 08:01 33.65947 -117.71342 27520 ft 521 kts 81°
2026-05-05 08:01 33.66771 -117.67104 27926 ft 529 kts 81°
2026-05-05 08:01 33.67613 -117.62764 28366 ft 536 kts 81°
2026-05-05 08:01 33.68467 -117.58343 28812 ft 543 kts 82°
2026-05-05 08:02 33.69323 -117.53886 29181 ft 551 kts 82°
2026-05-05 08:02 33.70189 -117.49367 29644 ft 558 kts 82°
2026-05-05 08:02 33.71061 -117.44812 30342 ft 558 kts 82°
2026-05-05 08:02 33.71926 -117.40279 31041 ft 557 kts 82°
2026-05-05 08:03 33.72800 -117.35682 31568 ft 560 kts 83°
2026-05-05 08:03 33.73674 -117.31072 31953 ft 566 kts 83°
2026-05-05 08:03 33.74522 -117.26440 32402 ft 566 kts 87°
2026-05-05 08:03 33.74977 -117.21718 32800 ft 559 kts 96°
2026-05-05 08:04 33.74990 -117.17040 33287 ft 556 kts 100°
2026-05-05 08:04 33.74911 -117.12449 34065 ft 551 kts 100°
2026-05-05 08:04 33.74823 -117.07887 34985 ft 544 kts 100°
2026-05-05 08:04 33.74733 -117.03324 35895 ft 536 kts 100°
2026-05-05 08:05 33.74641 -116.98873 36599 ft 532 kts 100°
2026-05-05 08:05 33.74543 -116.94403 37006 ft 534 kts 100°
2026-05-05 08:05 33.74344 -116.85509 37028 ft 534 kts 100°
2026-05-05 08:06 33.74141 -116.76565 36992 ft 532 kts 100°
2026-05-05 08:06 33.73929 -116.67627 36993 ft 535 kts 100°
2026-05-05 08:07 33.73711 -116.58686 36985 ft 536 kts 101°
2026-05-05 08:07 33.73489 -116.49792 36979 ft 534 kts 100°
2026-05-05 08:08 33.73254 -116.40771 36968 ft 538 kts 100°
2026-05-05 08:08 33.73019 -116.31775 36954 ft 534 kts 101°
2026-05-05 08:09 33.72773 -116.22778 36916 ft 536 kts 101°
2026-05-05 08:09 33.72523 -116.13831 36938 ft 535 kts 101°
2026-05-05 08:10 33.72602 -116.09294 36809 ft 542 kts 92°
2026-05-05 08:10 33.73183 -116.04811 36967 ft 555 kts 84°
2026-05-05 08:10 33.74247 -116.00295 36938 ft 566 kts 78°
2026-05-05 08:10 33.75496 -115.95788 36949 ft 564 kts 77°
2026-05-05 08:11 33.77998 -115.86852 36950 ft 564 kts 77°
2026-05-05 08:11 33.80489 -115.77891 36921 ft 566 kts 77°
2026-05-05 08:12 33.82980 -115.68883 36940 ft 564 kts 77°
2026-05-05 08:12 33.85439 -115.59949 36929 ft 564 kts 77°
2026-05-05 08:13 33.87906 -115.50950 36931 ft 565 kts 77°
2026-05-05 08:13 33.90354 -115.41986 36892 ft 564 kts 77°
2026-05-05 08:14 33.92822 -115.32916 36878 ft 567 kts 78°
2026-05-05 08:14 33.95295 -115.23801 36908 ft 566 kts 78°
2026-05-05 08:15 33.97727 -115.14809 36897 ft 563 kts 78°
2026-05-05 08:15 34.00138 -115.05857 36883 ft 564 kts 78°
2026-05-05 08:16 34.02575 -114.96780 36874 ft 566 kts 78°
2026-05-05 08:16 34.04987 -114.87772 36883 ft 566 kts 78°
2026-05-05 08:17 34.07410 -114.78689 36885 ft 565 kts 78°
2026-05-05 08:17 34.09808 -114.69670 36907 ft 568 kts 78°
2026-05-05 08:18 34.12369 -114.60422 36889 ft 568 kts 77°
2026-05-05 08:18 34.14943 -114.51352 36890 ft 571 kts 76°
2026-05-05 08:19 34.17503 -114.42293 36895 ft 568 kts 76°
2026-05-05 08:19 34.20061 -114.33193 36886 ft 569 kts 77°
2026-05-05 08:20 34.22618 -114.24063 36881 ft 569 kts 77°
2026-05-05 08:20 34.25170 -114.14915 36883 ft 570 kts 77°
2026-05-05 08:21 34.27699 -114.05820 36895 ft 571 kts 77°
2026-05-05 08:21 34.30233 -113.96673 36892 ft 573 kts 77°
2026-05-05 08:22 34.32748 -113.87569 36904 ft 571 kts 77°
2026-05-05 08:22 34.35262 -113.78437 36914 ft 571 kts 77°
2026-05-05 08:23 34.37777 -113.69267 36923 ft 571 kts 77°
2026-05-05 08:23 34.40272 -113.60148 36944 ft 569 kts 77°
2026-05-05 08:24 34.42770 -113.50980 36959 ft 570 kts 77°
2026-05-05 08:24 34.45248 -113.41855 36964 ft 571 kts 76°
2026-05-05 08:25 34.47753 -113.32604 36962 ft 569 kts 77°
2026-05-05 08:25 34.50230 -113.23423 36965 ft 570 kts 77°
2026-05-05 08:26 34.52670 -113.14346 36971 ft 569 kts 77°
2026-05-05 08:26 34.55130 -113.05168 36981 ft 569 kts 77°
2026-05-05 08:27 34.57573 -112.96020 36994 ft 570 kts 77°
2026-05-05 08:27 34.59992 -112.86932 36999 ft 571 kts 77°
2026-05-05 08:28 34.62420 -112.77784 37007 ft 569 kts 77°
2026-05-05 08:28 34.64853 -112.68578 37010 ft 569 kts 77°
2026-05-05 08:29 34.67263 -112.59435 37020 ft 569 kts 77°
2026-05-05 08:30 34.70862 -112.45644 37038 ft 569 kts 78°
2026-05-05 08:30 34.72992 -112.36391 37047 ft 567 kts 79°
2026-05-05 08:31 34.75125 -112.27020 37025 ft 564 kts 80°
2026-05-05 08:31 34.77223 -112.17798 37016 ft 566 kts 80°
2026-05-05 08:32 34.79322 -112.08565 37013 ft 567 kts 79°
2026-05-05 08:32 34.81416 -111.99332 37020 ft 565 kts 79°
2026-05-05 08:33 34.83508 -111.90077 37032 ft 567 kts 79°
2026-05-05 08:33 34.85599 -111.80799 37046 ft 566 kts 79°
2026-05-05 08:34 34.87661 -111.71615 37056 ft 565 kts 79°
2026-05-05 08:34 34.89743 -111.62299 37044 ft 567 kts 79°
2026-05-05 08:35 34.91797 -111.53087 37034 ft 564 kts 79°
2026-05-05 08:35 34.93860 -111.43786 37032 ft 569 kts 79°
2026-05-05 08:36 34.95914 -111.34499 37033 ft 569 kts 79°
2026-05-05 08:36 34.97998 -111.25034 37018 ft 568 kts 80°
2026-05-05 08:37 35.00044 -111.15702 37022 ft 568 kts 79°
2026-05-05 08:37 35.02079 -111.06383 37028 ft 569 kts 79°
2026-05-05 08:38 35.04118 -110.97010 37030 ft 567 kts 79°
2026-05-05 08:38 35.06151 -110.87620 37035 ft 572 kts 79°
2026-05-05 08:39 35.08168 -110.78271 37032 ft 570 kts 79°
2026-05-05 08:39 35.10183 -110.68895 37029 ft 571 kts 79°
2026-05-05 08:40 35.12234 -110.59311 37015 ft 572 kts 79°
2026-05-05 08:40 35.14237 -110.49913 37012 ft 571 kts 79°
2026-05-05 08:41 35.16236 -110.40494 37017 ft 573 kts 79°
2026-05-05 08:41 35.18242 -110.31001 36989 ft 572 kts 79°
2026-05-05 08:42 35.20231 -110.21554 36996 ft 573 kts 79°
2026-05-05 08:42 35.22210 -110.12110 37002 ft 572 kts 79°
2026-05-05 08:43 35.24189 -110.02625 37004 ft 574 kts 79°
2026-05-05 08:43 35.26146 -109.93214 37012 ft 572 kts 79°
2026-05-05 08:44 35.28112 -109.83714 37013 ft 573 kts 79°
2026-05-05 08:44 35.30049 -109.74313 37022 ft 575 kts 79°
2026-05-05 08:45 35.31999 -109.64809 37028 ft 574 kts 78°
2026-05-05 08:45 35.33942 -109.55299 37040 ft 574 kts 78°
2026-05-05 08:46 35.35871 -109.45819 37049 ft 575 kts 78°
2026-05-05 08:46 35.37791 -109.36337 37052 ft 574 kts 78°
2026-05-05 08:47 35.39712 -109.26814 37037 ft 573 kts 79°
2026-05-05 08:47 35.41633 -109.17245 37046 ft 575 kts 78°
2026-05-05 08:48 35.43535 -109.07729 37054 ft 576 kts 78°
2026-05-05 08:48 35.45434 -108.98194 37059 ft 573 kts 78°
2026-05-05 08:49 35.47317 -108.88686 37076 ft 576 kts 78°
2026-05-05 08:49 35.49595 -108.79245 37090 ft 576 kts 71°
2026-05-05 08:50 35.52217 -108.69913 37083 ft 577 kts 71°
2026-05-05 08:50 35.54788 -108.60626 37069 ft 575 kts 72°
2026-05-05 08:51 35.57339 -108.51307 37066 ft 577 kts 72°
2026-05-05 08:51 35.59878 -108.41952 37071 ft 575 kts 72°
2026-05-05 08:52 35.62415 -108.32550 37056 ft 578 kts 72°
2026-05-05 08:52 35.64937 -108.23153 37054 ft 576 kts 72°
2026-05-05 08:53 35.67435 -108.13807 37053 ft 577 kts 73°
2026-05-05 08:53 35.69930 -108.04430 37051 ft 578 kts 73°
2026-05-05 08:54 35.72433 -107.94987 37064 ft 576 kts 72°
2026-05-05 08:54 35.74899 -107.85649 37068 ft 578 kts 72°
2026-05-05 08:55 35.77374 -107.76247 37074 ft 576 kts 72°
2026-05-05 08:55 35.79844 -107.66825 37076 ft 576 kts 72°
2026-05-05 08:56 35.82299 -107.57427 37078 ft 576 kts 72°
2026-05-05 08:56 35.84739 -107.48053 37083 ft 575 kts 72°
2026-05-05 08:57 35.87169 -107.38682 37091 ft 575 kts 71°
2026-05-05 08:57 35.89637 -107.29130 37069 ft 573 kts 73°
2026-05-05 08:58 35.92054 -107.19743 37080 ft 575 kts 72°
2026-05-05 08:58 35.94453 -107.10391 37084 ft 573 kts 72°
2026-05-05 08:59 35.96845 -107.01035 37090 ft 571 kts 72°
2026-05-05 08:59 35.99234 -106.91650 37088 ft 573 kts 72°
2026-05-05 09:00 36.01607 -106.82300 37081 ft 572 kts 72°
2026-05-05 09:00 36.03983 -106.72900 37079 ft 573 kts 72°
2026-05-05 09:01 36.06340 -106.63540 37076 ft 574 kts 71°
2026-05-05 09:01 36.08704 -106.54120 37084 ft 574 kts 72°
2026-05-05 09:02 36.11073 -106.44647 37080 ft 574 kts 72°
2026-05-05 09:02 36.13444 -106.35126 37073 ft 578 kts 71°
2026-05-05 09:03 36.15821 -106.25541 37060 ft 573 kts 72°
2026-05-05 09:03 36.18169 -106.16043 37042 ft 578 kts 72°
2026-05-05 09:04 36.20498 -106.06587 37046 ft 578 kts 72°
2026-05-05 09:04 36.22847 -105.97008 37024 ft 577 kts 72°
2026-05-05 09:05 36.25173 -105.87490 37053 ft 577 kts 72°
2026-05-05 09:05 36.27489 -105.77976 37062 ft 580 kts 72°
2026-05-05 09:06 36.29807 -105.68420 37078 ft 578 kts 72°
2026-05-05 09:06 36.32121 -105.58836 37099 ft 580 kts 72°
2026-05-05 09:07 36.34419 -105.49287 37101 ft 579 kts 72°
2026-05-05 09:07 36.36720 -105.39685 37094 ft 579 kts 72°
2026-05-05 09:08 36.39031 -105.30004 37073 ft 579 kts 73°
2026-05-05 09:08 36.41317 -105.20391 37066 ft 580 kts 73°
2026-05-05 09:09 36.43606 -105.10725 37060 ft 583 kts 72°
2026-05-05 09:09 36.45871 -105.01124 37063 ft 582 kts 72°
2026-05-05 09:10 36.48135 -104.91483 37054 ft 582 kts 72°
2026-05-05 09:10 36.50971 -104.82038 37052 ft 580 kts 62°
2026-05-05 09:11 36.54400 -104.73035 37057 ft 577 kts 60°
2026-05-05 09:11 36.57845 -104.63959 37034 ft 580 kts 61°
2026-05-05 09:12 36.61276 -104.54850 37032 ft 578 kts 60°
2026-05-05 09:12 36.64914 -104.45142 37142 ft 577 kts 60°
2026-05-05 09:12 36.66605 -104.40614 37302 ft 576 kts 61°
2026-05-05 09:13 36.68295 -104.36081 37480 ft 579 kts 60°
2026-05-05 09:13 36.70014 -104.31461 37628 ft 579 kts 62°
2026-05-05 09:13 36.71713 -104.26887 37778 ft 580 kts 62°
2026-05-05 09:13 36.73417 -104.22289 37919 ft 579 kts 62°
2026-05-05 09:14 36.75106 -104.17728 38074 ft 582 kts 62°
2026-05-05 09:14 36.76801 -104.13141 38314 ft 584 kts 61°
2026-05-05 09:14 36.78495 -104.08550 38751 ft 582 kts 61°
2026-05-05 09:14 36.80190 -104.03948 38963 ft 584 kts 61°
2026-05-05 09:15 36.81874 -103.99371 38978 ft 584 kts 62°
2026-05-05 09:15 36.85260 -103.90141 38955 ft 582 kts 62°
2026-05-05 09:16 36.88620 -103.80958 38948 ft 583 kts 61°
2026-05-05 09:16 36.91982 -103.71742 38948 ft 583 kts 60°
2026-05-05 09:17 36.95321 -103.62559 38946 ft 583 kts 61°
2026-05-05 09:17 36.98704 -103.53230 38950 ft 587 kts 60°
2026-05-05 09:18 37.02045 -103.43986 38945 ft 587 kts 60°
2026-05-05 09:18 37.05405 -103.34661 38952 ft 586 kts 62°
2026-05-05 09:19 37.08790 -103.25242 38915 ft 590 kts 62°
2026-05-05 09:19 37.12199 -103.15720 38909 ft 587 kts 62°
2026-05-05 09:20 37.15532 -103.06387 38908 ft 590 kts 62°
2026-05-05 09:20 37.18887 -102.96958 38908 ft 591 kts 62°
2026-05-05 09:21 37.22215 -102.87579 38899 ft 590 kts 62°
2026-05-05 09:21 37.25535 -102.78188 38899 ft 586 kts 61°
2026-05-05 09:22 37.28837 -102.68827 38899 ft 590 kts 62°
2026-05-05 09:22 37.32121 -102.59479 38892 ft 584 kts 61°
2026-05-05 09:23 37.35413 -102.50089 38890 ft 587 kts 62°
2026-05-05 09:23 37.38692 -102.40701 38892 ft 586 kts 62°
2026-05-05 09:24 37.42018 -102.31149 38848 ft 584 kts 62°
2026-05-05 09:24 37.45277 -102.21763 38854 ft 588 kts 63°
2026-05-05 09:25 37.48540 -102.12334 38849 ft 588 kts 62°
2026-05-05 09:25 37.51792 -102.02902 38862 ft 584 kts 62°
2026-05-05 09:26 37.55023 -101.93508 38870 ft 589 kts 63°
2026-05-05 09:26 37.58268 -101.84039 38862 ft 586 kts 63°
2026-05-05 09:27 37.61495 -101.74591 38858 ft 586 kts 62°
2026-05-05 09:27 37.64702 -101.65173 38875 ft 582 kts 61°
2026-05-05 09:28 37.67921 -101.55697 38859 ft 588 kts 61°
2026-05-05 09:28 37.71104 -101.46284 38847 ft 582 kts 61°
2026-05-05 09:29 37.74279 -101.36871 38868 ft 584 kts 62°
2026-05-05 09:29 37.77491 -101.27319 38836 ft 584 kts 63°
2026-05-05 09:30 37.80662 -101.17855 38835 ft 584 kts 63°
2026-05-05 09:30 37.83824 -101.08387 38833 ft 581 kts 62°
2026-05-05 09:31 37.86975 -100.98927 38836 ft 584 kts 63°
2026-05-05 09:31 37.90117 -100.89456 38835 ft 582 kts 63°
2026-05-05 09:32 37.93228 -100.80048 38843 ft 581 kts 62°
2026-05-05 09:32 37.96374 -100.70510 38841 ft 583 kts 62°
2026-05-05 09:33 37.99493 -100.61016 38849 ft 582 kts 62°
2026-05-05 09:33 38.02605 -100.51514 38854 ft 582 kts 61°
2026-05-05 09:34 38.05694 -100.42053 38855 ft 585 kts 62°
2026-05-05 09:34 38.08810 -100.32471 38830 ft 582 kts 63°
2026-05-05 09:35 38.11999 -100.22644 38819 ft 587 kts 63°
2026-05-05 09:35 38.16636 -100.08279 38819 ft 586 kts 63°
2026-05-05 09:36 38.19713 -99.98708 38832 ft 585 kts 63°
2026-05-05 09:36 38.22801 -99.89069 38834 ft 587 kts 62°
2026-05-05 09:37 38.25861 -99.79488 38834 ft 585 kts 62°
2026-05-05 09:37 38.28899 -99.69939 38840 ft 582 kts 62°
2026-05-05 09:38 38.31955 -99.60310 38850 ft 588 kts 61°
2026-05-05 09:38 38.34993 -99.50696 38855 ft 586 kts 62°
2026-05-05 09:39 38.38061 -99.40961 38852 ft 588 kts 62°
2026-05-05 09:39 38.41111 -99.31242 38818 ft 586 kts 62°
2026-05-05 09:40 38.44167 -99.21472 38823 ft 587 kts 63°
2026-05-05 09:40 38.47188 -99.11784 38837 ft 588 kts 61°
2026-05-05 09:41 38.50186 -99.02124 38833 ft 583 kts 61°
2026-05-05 09:41 38.53184 -98.92448 38840 ft 589 kts 61°
2026-05-05 09:42 38.56158 -98.82798 38848 ft 581 kts 61°
2026-05-05 09:42 38.59141 -98.73102 38848 ft 585 kts 62°
2026-05-05 09:43 38.62089 -98.63480 38857 ft 585 kts 62°
2026-05-05 09:43 38.65049 -98.53783 38851 ft 584 kts 62°
2026-05-05 09:44 38.68014 -98.44039 38860 ft 585 kts 61°
2026-05-05 09:44 38.70941 -98.34372 38861 ft 582 kts 62°
2026-05-05 09:45 38.73890 -98.24616 38835 ft 583 kts 63°
2026-05-05 09:45 38.76831 -98.14846 38836 ft 586 kts 61°
2026-05-05 09:46 38.79738 -98.05147 38841 ft 583 kts 61°
2026-05-05 09:46 38.82668 -97.95347 38853 ft 586 kts 61°
2026-05-05 09:47 38.85561 -97.85622 38851 ft 578 kts 61°
2026-05-05 09:47 38.88444 -97.75914 38861 ft 586 kts 62°
2026-05-05 09:48 38.91312 -97.66204 38875 ft 581 kts 62°
2026-05-05 09:48 38.94041 -97.56360 38863 ft 579 kts 63°
2026-05-05 09:49 38.96658 -97.46526 38876 ft 587 kts 63°
2026-05-05 09:49 38.99279 -97.36613 38882 ft 585 kts 63°
2026-05-05 09:50 39.01936 -97.26530 38852 ft 587 kts 64°
2026-05-05 09:50 39.04546 -97.16579 38859 ft 584 kts 64°
2026-05-05 09:51 39.07117 -97.06732 38857 ft 582 kts 63°
2026-05-05 09:51 39.09694 -96.96830 38854 ft 581 kts 64°
2026-05-05 09:52 39.12325 -96.86687 38869 ft 585 kts 64°
2026-05-05 09:52 39.14872 -96.76814 38882 ft 582 kts 63°
2026-05-05 09:53 39.17429 -96.66868 38877 ft 582 kts 63°
2026-05-05 09:53 39.19957 -96.56997 38879 ft 583 kts 63°
2026-05-05 09:54 39.22488 -96.47075 38868 ft 585 kts 64°
2026-05-05 09:54 39.25010 -96.37135 38871 ft 577 kts 63°
2026-05-05 09:55 39.27535 -96.27159 38838 ft 582 kts 64°
2026-05-05 09:55 39.30048 -96.17181 38857 ft 580 kts 64°
2026-05-05 09:56 39.32535 -96.07275 38852 ft 583 kts 64°
2026-05-05 09:56 39.35022 -95.97313 38847 ft 581 kts 64°
2026-05-05 09:57 39.37500 -95.87360 38856 ft 579 kts 64°
2026-05-05 09:57 39.39954 -95.77457 38845 ft 581 kts 64°
2026-05-05 09:58 39.42404 -95.67526 38864 ft 578 kts 64°
2026-05-05 09:58 39.44856 -95.57549 38872 ft 578 kts 64°
2026-05-05 09:59 39.47270 -95.47688 38875 ft 581 kts 64°
2026-05-05 09:59 39.49710 -95.37672 38865 ft 576 kts 64°
2026-05-05 10:00 39.52153 -95.27615 38837 ft 584 kts 65°
2026-05-05 10:00 39.54576 -95.17584 38834 ft 579 kts 65°
2026-05-05 10:01 39.56975 -95.07610 38831 ft 579 kts 64°
2026-05-05 10:01 39.59367 -94.97634 38852 ft 582 kts 65°
2026-05-05 10:02 39.61763 -94.87593 38864 ft 582 kts 65°
2026-05-05 10:02 39.64130 -94.77616 38870 ft 574 kts 65°
2026-05-05 10:03 39.66504 -94.67589 38882 ft 581 kts 64°
2026-05-05 10:03 39.68841 -94.57660 38871 ft 577 kts 65°
2026-05-05 10:04 39.71187 -94.47659 38857 ft 575 kts 65°
2026-05-05 10:04 39.73517 -94.37681 38874 ft 576 kts 64°
2026-05-05 10:05 39.75863 -94.27591 38854 ft 575 kts 66°
2026-05-05 10:05 39.78187 -94.17554 38854 ft 577 kts 65°
2026-05-05 10:06 39.80490 -94.07559 38856 ft 580 kts 65°
2026-05-05 10:06 39.82800 -93.97487 38865 ft 576 kts 65°
2026-05-05 10:07 39.85082 -93.87490 38887 ft 574 kts 65°
2026-05-05 10:07 39.87348 -93.77532 38869 ft 576 kts 66°
2026-05-05 10:08 39.89625 -93.67465 38867 ft 571 kts 65°
2026-05-05 10:08 39.91860 -93.57561 38855 ft 575 kts 66°
2026-05-05 10:09 39.94115 -93.47511 38855 ft 573 kts 66°
2026-05-05 10:09 39.96346 -93.37519 38862 ft 573 kts 65°
2026-05-05 10:10 39.98594 -93.27413 38854 ft 574 kts 67°
2026-05-05 10:10 40.00812 -93.17391 38853 ft 570 kts 67°
2026-05-05 10:11 40.03016 -93.07394 38856 ft 576 kts 66°
2026-05-05 10:11 40.05203 -92.97415 38849 ft 570 kts 68°
2026-05-05 10:12 40.07393 -92.87386 38860 ft 570 kts 66°
2026-05-05 10:12 40.09558 -92.77428 38868 ft 570 kts 67°
2026-05-05 10:13 40.11749 -92.67306 38884 ft 571 kts 68°
2026-05-05 10:13 40.12831 -92.62271 38764 ft 559 kts 68°
2026-05-05 10:13 40.14024 -92.57484 38183 ft 551 kts 60°
2026-05-05 10:14 40.15569 -92.52972 37343 ft 548 kts 56°
2026-05-05 10:14 40.17240 -92.48460 36909 ft 541 kts 57°
2026-05-05 10:14 40.20535 -92.39537 36873 ft 549 kts 57°
2026-05-05 10:15 40.23886 -92.30349 36850 ft 552 kts 57°
2026-05-05 10:15 40.27159 -92.21294 36851 ft 552 kts 58°
2026-05-05 10:16 40.30458 -92.12123 36848 ft 552 kts 58°
2026-05-05 10:16 40.33720 -92.03005 36852 ft 552 kts 58°
2026-05-05 10:17 40.36946 -91.93951 36853 ft 546 kts 58°
2026-05-05 10:17 40.40192 -91.84821 36855 ft 551 kts 58°
2026-05-05 10:18 40.43395 -91.75734 36857 ft 552 kts 58°
2026-05-05 10:18 40.46504 -91.66571 36860 ft 546 kts 59°
2026-05-05 10:19 40.49606 -91.57403 36869 ft 552 kts 60°
2026-05-05 10:19 40.52723 -91.48155 36877 ft 550 kts 60°
2026-05-05 10:20 40.55833 -91.38915 36883 ft 549 kts 60°
2026-05-05 10:20 40.59007 -91.29631 36863 ft 546 kts 59°
2026-05-05 10:21 40.62128 -91.20508 36857 ft 552 kts 60°
2026-05-05 10:21 40.65261 -91.11296 36856 ft 542 kts 60°
2026-05-05 10:22 40.68359 -91.02169 36859 ft 548 kts 60°
2026-05-05 10:22 40.71445 -90.93040 36860 ft 543 kts 60°
2026-05-05 10:23 40.74538 -90.83863 36781 ft 543 kts 60°
2026-05-05 10:23 40.76058 -90.79339 36102 ft 543 kts 61°
2026-05-05 10:23 40.77597 -90.74757 35221 ft 548 kts 61°
2026-05-05 10:24 40.79145 -90.70142 34384 ft 551 kts 63°
2026-05-05 10:24 40.80696 -90.65506 33522 ft 554 kts 63°
2026-05-05 10:24 40.82236 -90.60892 32654 ft 556 kts 64°
2026-05-05 10:24 40.83813 -90.56173 31772 ft 559 kts 64°
2026-05-05 10:25 40.85387 -90.51469 30858 ft 561 kts 64°
2026-05-05 10:25 40.86955 -90.46774 30226 ft 557 kts 64°
2026-05-05 10:25 40.88514 -90.42095 29707 ft 550 kts 64°
2026-05-05 10:25 40.90034 -90.37527 29164 ft 544 kts 64°
2026-05-05 10:26 40.91552 -90.32957 28586 ft 539 kts 64°
2026-05-05 10:26 40.93078 -90.28355 27989 ft 534 kts 64°
2026-05-05 10:26 40.94559 -90.23881 27425 ft 528 kts 64°
2026-05-05 10:26 40.96024 -90.19450 26844 ft 523 kts 63°
2026-05-05 10:27 40.97481 -90.15035 26268 ft 518 kts 63°
2026-05-05 10:27 40.98914 -90.10689 25677 ft 513 kts 63°
2026-05-05 10:27 41.00339 -90.06356 25096 ft 508 kts 63°
2026-05-05 10:27 41.01736 -90.02104 24517 ft 503 kts 63°
2026-05-05 10:28 41.03127 -89.97863 23931 ft 498 kts 63°
2026-05-05 10:28 41.04500 -89.93695 23514 ft 489 kts 62°
2026-05-05 10:28 41.05849 -89.89616 23399 ft 482 kts 62°
2026-05-05 10:28 41.07213 -89.85500 23244 ft 490 kts 62°
2026-05-05 10:29 41.08587 -89.81338 23043 ft 485 kts 62°
2026-05-05 10:29 41.09930 -89.77262 22833 ft 483 kts 62°
2026-05-05 10:29 41.11285 -89.73145 22616 ft 481 kts 62°
2026-05-05 10:29 41.12664 -89.68944 22397 ft 480 kts 62°
2026-05-05 10:30 41.14010 -89.64842 22183 ft 479 kts 63°
2026-05-05 10:30 41.15324 -89.60829 21974 ft 478 kts 63°
2026-05-05 10:30 41.16664 -89.56797 21754 ft 474 kts 60°
2026-05-05 10:30 41.18215 -89.52927 21496 ft 471 kts 56°
2026-05-05 10:31 41.19801 -89.49120 21245 ft 466 kts 57°
2026-05-05 10:31 41.21349 -89.45383 21010 ft 466 kts 57°
2026-05-05 10:31 41.22929 -89.41548 20754 ft 465 kts 57°
2026-05-05 10:31 41.24459 -89.37810 20512 ft 462 kts 57°
2026-05-05 10:32 41.25980 -89.34079 20272 ft 461 kts 58°
2026-05-05 10:32 41.27528 -89.30269 20000 ft 462 kts 58°
2026-05-05 10:32 41.29069 -89.26461 19732 ft 458 kts 59°
2026-05-05 10:32 41.30569 -89.22737 19214 ft 460 kts 59°
2026-05-05 10:33 41.32067 -89.19006 18627 ft 456 kts 59°
2026-05-05 10:33 41.33568 -89.15260 18079 ft 451 kts 59°
2026-05-05 10:33 41.35024 -89.11620 17586 ft 445 kts 59°
2026-05-05 10:33 41.36462 -89.08019 17183 ft 438 kts 59°
2026-05-05 10:34 41.37900 -89.04415 16740 ft 435 kts 59°
2026-05-05 10:34 41.39314 -89.00867 16252 ft 436 kts 59°
2026-05-05 10:34 41.40734 -88.97297 15726 ft 433 kts 59°
2026-05-05 10:34 41.42141 -88.93755 15219 ft 429 kts 58°
2026-05-05 10:35 41.43525 -88.90269 14738 ft 426 kts 58°
2026-05-05 10:35 41.44900 -88.86800 14238 ft 426 kts 58°
2026-05-05 10:35 41.46289 -88.83292 13735 ft 423 kts 58°
2026-05-05 10:35 41.47660 -88.79826 13246 ft 419 kts 59°
2026-05-05 10:36 41.49003 -88.76426 12767 ft 414 kts 59°
2026-05-05 10:36 41.50337 -88.73042 12292 ft 409 kts 59°
2026-05-05 10:36 41.51658 -88.69692 11840 ft 403 kts 59°
2026-05-05 10:36 41.52956 -88.66399 11679 ft 402 kts 59°
2026-05-05 10:37 41.54276 -88.63048 11559 ft 403 kts 59°
2026-05-05 10:37 41.55569 -88.59764 11393 ft 401 kts 59°
2026-05-05 10:37 41.57058 -88.56611 11219 ft 395 kts 49°
2026-05-05 10:37 41.58839 -88.53868 11047 ft 393 kts 43°
2026-05-05 10:38 41.60697 -88.51158 10871 ft 391 kts 43°
2026-05-05 10:38 41.62537 -88.48478 10699 ft 388 kts 43°
2026-05-05 10:38 41.64310 -88.45892 10515 ft 375 kts 43°
2026-05-05 10:38 41.66050 -88.43350 10360 ft 362 kts 43°
2026-05-05 10:39 41.67735 -88.40886 10191 ft 351 kts 42°
2026-05-05 10:39 41.69360 -88.38510 10054 ft 340 kts 42°
2026-05-05 10:39 41.70931 -88.36220 9877 ft 330 kts 40°
2026-05-05 10:39 41.72575 -88.34129 9674 ft 316 kts 36°
2026-05-05 10:40 41.74218 -88.32173 9550 ft 308 kts 36°
2026-05-05 10:40 41.75829 -88.30263 9408 ft 304 kts 36°
2026-05-05 10:40 41.77408 -88.28381 9271 ft 305 kts 36°
2026-05-05 10:40 41.78984 -88.26497 9127 ft 303 kts 36°
2026-05-05 10:41 41.80560 -88.24606 8990 ft 300 kts 37°
2026-05-05 10:41 41.82108 -88.22750 8861 ft 299 kts 36°
2026-05-05 10:41 41.83675 -88.20869 8729 ft 300 kts 37°
2026-05-05 10:41 41.85207 -88.19027 8589 ft 296 kts 37°
2026-05-05 10:42 41.87982 -88.14948 8295 ft 304 kts 64°
2026-05-05 10:42 41.88459 -88.12176 8157 ft 304 kts 85°
2026-05-05 10:42 41.88526 -88.09306 8031 ft 305 kts 90°
2026-05-05 10:43 41.88510 -88.06455 7896 ft 304 kts 91°
2026-05-05 10:43 41.88485 -88.03629 7762 ft 302 kts 91°
2026-05-05 10:43 41.88463 -88.00813 7618 ft 300 kts 91°
2026-05-05 10:43 41.88443 -87.98018 7482 ft 299 kts 90°
2026-05-05 10:44 41.88441 -87.95220 7347 ft 296 kts 90°
2026-05-05 10:44 41.88444 -87.92459 7212 ft 295 kts 90°
2026-05-05 10:44 41.88444 -87.89701 7084 ft 294 kts 90°
2026-05-05 10:44 41.88442 -87.86961 6951 ft 293 kts 89°
2026-05-05 10:45 41.88439 -87.84229 6817 ft 290 kts 89°
2026-05-05 10:45 41.88435 -87.81509 6688 ft 291 kts 89°
2026-05-05 10:45 41.88431 -87.78791 6560 ft 291 kts 89°
2026-05-05 10:45 41.88429 -87.76112 6436 ft 288 kts 89°
2026-05-05 10:46 41.88427 -87.73422 6302 ft 286 kts 90°
2026-05-05 10:46 41.88423 -87.70793 6178 ft 282 kts 90°
2026-05-05 10:46 41.88419 -87.68141 6019 ft 275 kts 89°
2026-05-05 10:46 41.88546 -87.65677 5979 ft 262 kts 72°
2026-05-05 10:47 41.89388 -87.63600 5803 ft 248 kts 41°
2026-05-05 10:47 41.90808 -87.62420 5520 ft 237 kts
2026-05-05 10:47 41.92408 -87.62054 5328 ft 229 kts
2026-05-05 10:47 41.93946 -87.61795 5298 ft 218 kts
2026-05-05 10:48 41.95416 -87.61546 5252 ft 208 kts
2026-05-05 10:48 41.96838 -87.61347 5052 ft 203 kts 351°
2026-05-05 10:48 41.98122 -87.61951 4765 ft 195 kts 319°
2026-05-05 10:48 41.98905 -87.63373 4488 ft 192 kts 287°
2026-05-05 10:49 41.98879 -87.65153 4216 ft 193 kts 261°
2026-05-05 10:49 41.98700 -87.66908 3961 ft 188 kts 271°
2026-05-05 10:49 41.98703 -87.68649 3712 ft 183 kts 275°
2026-05-05 10:49 41.98733 -87.70335 3468 ft 178 kts 275°
2026-05-05 10:50 41.98751 -87.71989 3226 ft 175 kts 275°
2026-05-05 10:50 41.98760 -87.73583 2991 ft 165 kts 275°
2026-05-05 10:50 41.98768 -87.75066 2774 ft 156 kts 276°
2026-05-05 10:50 41.98775 -87.76498 2564 ft 151 kts 276°
2026-05-05 10:51 41.98780 -87.77847 2365 ft 140 kts 277°
2026-05-05 10:51 41.98788 -87.79157 2174 ft 137 kts 276°
2026-05-05 10:51 41.98793 -87.80437 1979 ft 137 kts 276°
2026-05-05 10:51 41.98797 -87.81701 1786 ft 136 kts 276°
2026-05-05 10:52 41.98802 -87.82967 1603 ft 135 kts 276°
2026-05-05 10:52 41.98808 -87.84238 1398 ft 136 kts 276°
2026-05-05 10:52 41.98809 -87.85511 1183 ft 135 kts 276°
2026-05-05 10:52 41.98822 -87.86798 986 ft 137 kts 274°
2026-05-05 10:53 41.98818 -87.88085 812 ft 138 kts 275°
2026-05-05 10:53 41.98829 -87.89362 662 ft 135 kts 271°
2026-05-05 10:53 41.98831 -87.90439 664 ft 85 kts 270°
2026-05-05 10:53 41.98830 -87.90936 666 ft 32 kts 270°
2026-05-05 10:54 41.98830 -87.91212 668 ft 28 kts 270°
2026-05-05 10:54 41.98831 -87.91465 670 ft 25 kts 270°
2026-05-05 10:54 41.98824 -87.91696 673 ft 23 kts 261°
2026-05-05 10:54 41.98774 -87.91888 675 ft 19 kts 239°
2026-05-05 10:55 41.98730 -87.91989 676 ft 11 kts 239°
2026-05-05 10:55 41.98692 -87.92080 677 ft 11 kts 245°
2026-05-05 10:55 41.98679 -87.92178 677 ft 10 kts 270°
2026-05-05 10:55 41.98679 -87.92275 678 ft 10 kts 270°
2026-05-05 10:56 41.98678 -87.92362 678 ft 8 kts 259°
2026-05-05 10:56 41.98636 -87.92406 678 ft 8 kts 187°
2026-05-05 10:56 41.98571 -87.92411 678 ft 9 kts 180°
2026-05-05 10:56 41.98502 -87.92410 678 ft 10 kts 179°
2026-05-05 10:57 41.98431 -87.92408 678 ft 10 kts 179°
2026-05-05 10:57 41.98356 -87.92409 678 ft 10 kts 180°
2026-05-05 10:57 41.98288 -87.92378 678 ft 10 kts 122°
2026-05-05 10:57 41.98279 -87.92278 678 ft 11 kts 91°
2026-05-05 10:58 41.98279 -87.92169 677 ft 12 kts 89°
2026-05-05 10:58 41.98283 -87.92040 677 ft 15 kts 86°
2026-05-05 10:58 41.98289 -87.91881 676 ft 18 kts 89°
2026-05-05 10:58 41.98288 -87.91698 675 ft 19 kts 90°
2026-05-05 10:59 41.98289 -87.91511 673 ft 20 kts 89°
2026-05-05 10:59 41.98290 -87.91325 672 ft 20 kts 89°
2026-05-05 10:59 41.98293 -87.91137 671 ft 19 kts 89°
2026-05-05 10:59 41.98294 -87.90950 670 ft 19 kts 92°
2026-05-05 11:00 41.98288 -87.90768 670 ft 19 kts 90°
2026-05-05 11:00 41.98289 -87.90588 669 ft 19 kts 90°
2026-05-05 11:00 41.98289 -87.90404 668 ft 19 kts 89°
2026-05-05 11:00 41.98289 -87.90227 667 ft 19 kts 90°
2026-05-05 11:01 41.98289 -87.90048 666 ft 19 kts 90°
2026-05-05 11:01 41.98288 -87.89873 665 ft 18 kts 90°
2026-05-05 11:01 41.98285 -87.89694 664 ft 19 kts 93°
2026-05-05 11:01 41.98279 -87.89516 663 ft 19 kts 90°
2026-05-05 11:02 41.98279 -87.89385 662 ft 10 kts 90°
2026-05-05 11:02 41.98277 -87.89301 661 ft 7 kts 103°
2026-05-05 11:02 41.98241 -87.89260 661 ft 7 kts 160°
2026-05-05 11:02 41.98190 -87.89230 661 ft 8 kts 150°
2026-05-05 11:03 41.98151 -87.89214 661 ft 5 kts 188°
2026-05-05 11:03 41.98118 -87.89246 661 ft 6 kts 223°
2026-05-05 11:03 41.98083 -87.89297 662 ft 8 kts 230°
2026-05-05 11:03 41.98043 -87.89362 662 ft 9 kts 230°
2026-05-05 11:04 41.97996 -87.89436 662 ft 11 kts 230°
2026-05-05 11:04 41.97940 -87.89507 663 ft 10 kts 210°
2026-05-05 11:04 41.97869 -87.89528 663 ft 10 kts 178°
2026-05-05 11:04 41.97795 -87.89524 663 ft 10 kts 179°
2026-05-05 11:05 41.97721 -87.89524 663 ft 10 kts 180°
2026-05-05 11:05 41.97647 -87.89524 663 ft 7 kts 180°
2026-05-05 11:05 41.97595 -87.89524 663 ft 7 kts 180°
2026-05-05 11:05 41.97546 -87.89545 663 ft 6 kts 220°
2026-05-05 11:06 41.97536 -87.89601 664 ft 6 kts 282°
2026-05-05 11:06 41.97551 -87.89658 664 ft 4 kts 290°
2026-05-05 11:06 41.97552 -87.89665 664 ft 0 kts 291°
2026-05-05 11:08 41.97554 -87.89668 664 ft 1 kts 291°
2026-05-05 11:09 41.97557 -87.89682 664 ft 2 kts 290°
2026-05-05 11:09 41.97565 -87.89708 665 ft 3 kts 290°
2026-05-05 11:09 41.97572 -87.89740 665 ft 3 kts 281°
2026-05-05 11:09 41.97570 -87.89765 665 ft 2 kts 248°
2026-05-05 11:10 41.97561 -87.89785 665 ft 2 kts 238°
2026-05-05 11:10 41.97550 -87.89804 666 ft 2 kts 226°
2026-05-05 11:10 41.97539 -87.89818 666 ft 1 kts 222°
2026-05-05 11:10 41.97534 -87.89824 666 ft 0 kts 222°